Ionia, MI

6:54 PM EST on December 15, 2017 (GMT -0500)
Ionia

Weather History for KY70 - November, 2013

Change the Weather History Date:

Tuesday, November 5, 2013

  Actual Average (KGRR) Record (KGRR)
Temperature  
Mean Temperature 52 °F -  
Max Temperature 58 °F 48 °F 75 °F (1978)
Min Temperature 46 °F 33 °F 6 °F (1951)
Degree Days  
Heating Degree Days 13    
Growing Degree Days 2 (Base 50)    
Moisture  
Dew Point 44 °F    
Average Humidity 73    
Maximum Humidity 85    
Minimum Humidity 61    
Precipitation  
Precipitation 0.00 in - - ()
Sea Level Pressure  
Sea Level Pressure 30.23 in    
Wind  
Wind Speed 9 mph (South)    
Max Wind Speed 13 mph    
Max Gust Speed 17 mph    
Visibility 10 miles    
Events      
Averages and records for this station are not official NWS values.
T = Trace of Precipitation, MM = Missing Value Source: NWS Daily Summary

Daily Weather History Graph

Daily Weather History Graph

Search for Another Location

Airport or City:

Trip Planner

Search our weather history database for the weather conditions in past years. The results will help you decide how hot, cold, wet, or windy it might be!

Date:

Astronomy

Nov. 05, 2013 Rise Set
Actual Time 7:20 AM EST 5:27 PM EST
Civil Twilight 6:50 AM EST 5:56 PM EST
Nautical Twilight 6:16 AM EST 6:30 PM EST
Astronomical Twilight 5:43 AM EST 7:03 PM EST
Moon 9:36 AM EST (11/5) 7:25 PM EST (11/5)
Length of Visible Light 11h 06m
Length of Day
10h 07m
Waxing Crescent, 6% of the Moon is Illuminated
Nov 5
Waxing Crescent
Nov 10
First Quarter
Nov 17
Full
Nov 25
Last Quarter
Dec 2
New

Hourly Weather History & Observations

Time (EST) Temp. Windchill Dew Point Humidity Pressure Visibility Wind Dir Wind Speed Gust Speed Precip Events Conditions
12:14 AM 46.0 °F 41.4 °F 35.8 °F 67% 30.23 in 10.0 mi South 9.2 mph - N/A   Overcast
12:34 AM 46.4 °F 42.4 °F 36.9 °F 69% 30.23 in 10.0 mi South 8.1 mph - N/A   Overcast
12:54 AM 46.9 °F - 37.8 °F 70% 30.23 in 10.0 mi South 10.4 mph - N/A   Overcast
1:14 AM 47.5 °F - 38.5 °F 71% 30.23 in 10.0 mi South 8.1 mph - N/A   Overcast
1:34 AM 47.8 °F - 39.2 °F 72% 30.23 in 10.0 mi South 9.2 mph - N/A   Overcast
1:54 AM 48.4 °F - 40.1 °F 73% 30.23 in 10.0 mi SSW 9.2 mph - N/A   Overcast
2:14 AM 49.5 °F - 40.5 °F 71% 30.23 in 10.0 mi SSW 10.4 mph - N/A   Overcast
2:34 AM 50.2 °F - 41.0 °F 71% 30.23 in 10.0 mi SSW 10.4 mph - N/A   Overcast
2:54 AM 50.5 °F - 41.2 °F 70% 30.23 in 10.0 mi SSW 9.2 mph - N/A   Overcast
3:14 AM 50.4 °F - 41.4 °F 71% 30.23 in 10.0 mi SSW 9.2 mph - N/A   Overcast
3:34 AM 50.7 °F - 41.5 °F 71% 30.24 in 10.0 mi SSW 12.7 mph - N/A   Overcast
3:54 AM 50.9 °F - 41.7 °F 71% 30.24 in 10.0 mi SSW 10.4 mph - N/A   Overcast
4:14 AM 50.5 °F - 41.9 °F 72% 30.24 in 10.0 mi SSW 9.2 mph - N/A   Overcast
4:34 AM 50.4 °F - 41.9 °F 73% 30.25 in 10.0 mi SSW 9.2 mph - N/A   Overcast
4:54 AM 50.4 °F - 41.9 °F 73% 30.25 in 10.0 mi SSW 8.1 mph - N/A   Overcast
5:14 AM 50.4 °F - 41.9 °F 73% 30.25 in 10.0 mi SSW 9.2 mph - N/A   Overcast
5:34 AM 50.4 °F - 42.1 °F 73% 30.26 in 10.0 mi SSW 8.1 mph - N/A   Overcast
5:54 AM 50.5 °F - 42.1 °F 73% 30.26 in 10.0 mi SSW 8.1 mph - N/A   Overcast
6:14 AM 50.4 °F - 42.3 °F 74% 30.27 in 10.0 mi SSW 9.2 mph - N/A   Overcast
6:34 AM 50.2 °F - 42.3 °F 74% 30.27 in 10.0 mi SSW 9.2 mph - N/A   Overcast
6:54 AM 50.2 °F - 42.4 °F 75% 30.27 in 10.0 mi SSW 8.1 mph - N/A   Overcast
7:14 AM 50.0 °F - 42.8 °F 76% 30.28 in 10.0 mi SSW 6.9 mph - N/A   Overcast
7:34 AM 50.0 °F - 42.8 °F 76% 30.28 in 10.0 mi SSW 5.8 mph - N/A   Overcast
7:54 AM 50.0 °F - 42.8 °F 76% 30.29 in 10.0 mi SSW 4.6 mph - N/A   Overcast
8:14 AM 50.0 °F - 42.8 °F 76% 30.29 in 10.0 mi SSW 4.6 mph - N/A   Overcast
8:34 AM 50.2 °F - 43.0 °F 76% 30.29 in 10.0 mi South 5.8 mph - N/A   Overcast
8:54 AM 50.7 °F - 43.0 °F 75% 30.29 in 10.0 mi SSW 5.8 mph - N/A   Overcast
9:14 AM 50.9 °F - 43.2 °F 75% 30.29 in 10.0 mi SSW 4.6 mph - N/A   Overcast
9:34 AM 51.3 °F - 43.3 °F 74% 30.30 in 10.0 mi SW 6.9 mph - N/A   Overcast
9:54 AM 51.8 °F - 43.5 °F 73% 30.30 in 10.0 mi SSW 8.1 mph - N/A   Overcast
10:14 AM 52.0 °F - 43.5 °F 73% 30.29 in 10.0 mi WSW 4.6 mph - N/A   Overcast
10:34 AM 52.7 °F - 43.7 °F 71% 30.29 in 10.0 mi SSW 10.4 mph - N/A   Overcast
10:54 AM 53.1 °F - 43.7 °F 71% 30.29 in 10.0 mi SSW 6.9 mph - N/A   Overcast
11:14 AM 53.8 °F - 44.1 °F 70% 30.30 in 10.0 mi SSW 9.2 mph - N/A   Overcast
11:34 AM 54.5 °F - 44.2 °F 68% 30.30 in 10.0 mi SSW 9.2 mph - N/A   Overcast
11:54 AM 54.9 °F - 44.6 °F 68% 30.29 in 10.0 mi SW 8.1 mph - N/A   Overcast
12:14 PM 56.1 °F - 44.8 °F 66% 30.29 in 10.0 mi South 9.2 mph - N/A   Overcast
12:34 PM 57.2 °F - 44.8 °F 63% 30.27 in 10.0 mi SSW 8.1 mph - N/A   Scattered Clouds
12:54 PM 58.1 °F - 44.8 °F 61% 30.27 in 10.0 mi SSW 11.5 mph - N/A   Scattered Clouds
1:14 PM 58.5 °F - 45.1 °F 61% 30.27 in 10.0 mi South 8.1 mph - N/A   Scattered Clouds
1:34 PM 57.9 °F - 45.0 °F 62% 30.26 in 10.0 mi South 10.4 mph - N/A   Overcast
1:54 PM 57.6 °F - 44.8 °F 62% 30.26 in 10.0 mi South 8.1 mph - N/A   Overcast
2:14 PM 57.2 °F - 44.8 °F 63% 30.26 in 10.0 mi South 10.4 mph - N/A   Overcast
2:34 PM 57.2 °F - 44.6 °F 63% 30.25 in 10.0 mi South 6.9 mph - N/A   Overcast
2:54 PM 57.2 °F - 44.6 °F 63% 30.24 in 10.0 mi South 10.4 mph - N/A   Overcast
3:14 PM 56.8 °F - 44.6 °F 64% 30.24 in 10.0 mi South 9.2 mph - N/A   Mostly Cloudy
3:34 PM 56.7 °F - 45.0 °F 65% 30.24 in 10.0 mi SSW 12.7 mph 16.1 mph N/A   Mostly Cloudy
3:54 PM 55.9 °F - 45.3 °F 68% 30.23 in 10.0 mi South 9.2 mph - N/A   Overcast
4:14 PM 55.4 °F - 45.5 °F 69% 30.23 in 10.0 mi SSW 10.4 mph 17.3 mph N/A   Overcast
4:34 PM 55.4 °F - 45.5 °F 69% 30.23 in 10.0 mi South 9.2 mph - N/A   Overcast
4:54 PM 54.5 °F - 45.9 °F 73% 30.23 in 10.0 mi South 11.5 mph - N/A   Overcast
5:14 PM 53.6 °F - 46.6 °F 77% 30.22 in 10.0 mi SSW 8.1 mph - N/A   Overcast
5:34 PM 52.9 °F - 46.6 °F 79% 30.21 in 10.0 mi South 5.8 mph - N/A   Mostly Cloudy
5:54 PM 52.0 °F - 46.8 °F 82% 30.21 in 10.0 mi SSE 5.8 mph - N/A   Mostly Cloudy
6:14 PM 51.1 °F - 46.4 °F 84% 30.21 in 10.0 mi SE 4.6 mph - N/A   Overcast
6:34 PM 51.8 °F - 46.6 °F 82% 30.22 in 10.0 mi SSE 6.9 mph - N/A   Overcast
6:54 PM 51.8 °F - 46.6 °F 82% 30.20 in 10.0 mi SSE 9.2 mph - N/A   Overcast
7:14 PM 51.3 °F - 46.6 °F 84% 30.20 in 10.0 mi SSE 8.1 mph - N/A   Scattered Clouds
7:34 PM 51.1 °F - 46.8 °F 85% 30.19 in 10.0 mi SSE 8.1 mph - N/A   Scattered Clouds
7:54 PM 52.0 °F - 46.8 °F 82% 30.19 in 10.0 mi South 8.1 mph - N/A   Mostly Cloudy
8:14 PM 52.0 °F - 46.8 °F 82% 30.18 in 10.0 mi South 8.1 mph - N/A   Overcast
8:34 PM 52.0 °F - 46.6 °F 82% 30.17 in 10.0 mi South 8.1 mph - N/A   Overcast
8:54 PM 51.8 °F - 46.6 °F 82% 30.17 in 10.0 mi South 9.2 mph - N/A   Overcast
9:14 PM 51.8 °F - 46.4 °F 82% 30.16 in 10.0 mi South 9.2 mph - N/A   Overcast
9:34 PM 51.8 °F - 46.4 °F 82% 30.15 in 10.0 mi SSE 10.4 mph - N/A   Overcast
9:54 PM 52.0 °F - 46.0 °F 80% 30.14 in 10.0 mi South 11.5 mph - N/A   Overcast
10:14 PM 51.3 °F - 45.7 °F 81% 30.12 in 10.0 mi SSE 11.5 mph - N/A   Mostly Cloudy
10:34 PM 50.9 °F - 45.3 °F 81% 30.12 in 10.0 mi SSE 11.5 mph - N/A   Mostly Cloudy
10:54 PM 51.3 °F - 45.0 °F 79% 30.11 in 10.0 mi SSE 11.5 mph - N/A   Overcast
11:14 PM 51.8 °F - 44.6 °F 76% 30.10 in 10.0 mi South 12.7 mph - N/A   Mostly Cloudy
11:34 PM 51.8 °F - 44.1 °F 75% 30.09 in 10.0 mi South 10.4 mph - N/A   Scattered Clouds
11:54 PM 52.2 °F - 44.1 °F 74% 30.08 in 10.0 mi South 11.5 mph 17.3 mph N/A   Overcast